S-NET D (43186 NORAD) Tracking and Keplerian Element Data

This shows tracking and keplerian element data for the satellite.

Feedback or suggestion? Click here.




ElementValue
Catalog43186
NameS-NET D
Epoch Orbit25412
Epoch Day270.02330838
Epoch Year2022
RAAN173.7866
Inclination97.6483
Eccentricity0.0009309
Argument of Perigee327.3286
Mean Anonmoly32.7359
Mean Motion14.98223754
Decay Rate2.613E-05
L11 43186U 18014G 22270.02330838 .00002613 00000+0 22477-3 0 9992
L22 43186 97.6483 173.7866 0009309 327.3286 32.7359 14.98223754254129

Live tracking and technical data element details for S-NET D (NORAD 43186). S-NET D can be tracked NOW for your location showing map with azimuth and elevation plus other details from your city location.

Track the satellite on the map from your city or location and see movement details for azimuth, elevation, latitude, longitude, range, height, and movement on the map or in text.







IsCatalogInMostPopularTable: catalog: 43186, numindb: 648
Update: records affected: 1



GetName: 43186 S-NET D

Hit Count: updated at: Thu, 29 Sep 2022 10:35:12 GMT